When you browse on this site, cookies collect data to enhance your experience and personalize the content and advertising you see.
Visit our Privacy Policy to learn more. By continuing to use the site, you agree to this use of cookies and data.
  • In United Kingdom
  • List of Countries
  • For 7 days
  • Water Temperature
  • Weather Map
  • Weather Widgets
  • user-avatar
    Login

    Hourly Weather Khujand

    Today, 29 January, Wednesday

    Time Temperature Precipitation Wind Pressure Humidity
    00:00 +3°C° 0 mm 1 mps 733 mmHg 72%
    01:00 +3°C° 0 mm 1 mps 733 mmHg 72%
    02:00 +2°C° 0 mm 1 mps 733 mmHg 73%
    03:00 +2°C° 0 mm 1 mps 733 mmHg 73%
    04:00 +2°C° 0 mm 1 mps 732 mmHg 74%
    05:00 +2°C° 0 mm 1 mps 732 mmHg 74%
    06:00 +2°C° 0 mm 1 mps 732 mmHg 74%
    07:00 +2°C° 0 mm 1 mps 732 mmHg 74%
    08:00 +1°C° 0 mm 1 mps 732 mmHg 74%
    09:00 +2°C° 0 mm 2 mps 732 mmHg 68%
    10:00 +4°C° 0 mm 2 mps 732 mmHg 62%
    11:00 +4°C° 0 mm 3 mps 731 mmHg 56%
    12:00 +5°C° 0 mm 3 mps 731 mmHg 54%
    13:00 +5°C° 0 mm 3 mps 731 mmHg 52%
    14:00 +7°C° 0 mm 3 mps 730 mmHg 50%
    15:00 +7°C° 0 mm 2 mps 730 mmHg 52%
    16:00 +6°C° 0 mm 2 mps 730 mmHg 54%
    17:00 +7°C° 0 mm 1 mps 731 mmHg 55%
    18:00 +6°C° 0 mm 1 mps 731 mmHg 58%
    19:00 +5°C° 0 mm 1 mps 731 mmHg 62%
    20:00 +3°C° 0 mm 0 mps 732 mmHg 65%
    21:00 +4°C° 0 mm 1 mps 732 mmHg 62%
    22:00 +4°C° 0 mm 1 mps 732 mmHg 59%
    23:00 +3°C° 0 mm 2 mps 731 mmHg 57%

    Tomorrow, 30 January, Thursday

    Time Temperature Precipitation Wind Pressure Humidity
    00:00 +2°C° 0 mm 2 mps 731 mmHg 55%
    01:00 +2°C° 0 mm 2 mps 731 mmHg 53%
    02:00 +1°C° 0 mm 3 mps 731 mmHg 51%
    03:00 +1°C° 0 mm 3 mps 731 mmHg 51%
    04:00 +1°C° 0 mm 3 mps 731 mmHg 51%
    05:00 0°C° 0 mm 3 mps 731 mmHg 51%
    06:00 0°C° 0 mm 3 mps 731 mmHg 51%
    07:00 -1°C° 0 mm 4 mps 731 mmHg 50%
    08:00 -1°C° 0 mm 4 mps 731 mmHg 50%
    09:00 +1°C° 0 mm 5 mps 730 mmHg 46%
    10:00 +2°C° 0 mm 6 mps 730 mmHg 42%
    11:00 +4°C° 0 mm 7 mps 729 mmHg 37%
    12:00 +5°C° 0 mm 7 mps 729 mmHg 36%
    13:00 +5°C° 0 mm 7 mps 728 mmHg 34%
    14:00 +7°C° 0 mm 6 mps 728 mmHg 32%
    15:00 +7°C° 0 mm 6 mps 728 mmHg 34%
    16:00 +6°C° 0 mm 5 mps 728 mmHg 35%
    17:00 +6°C° 0 mm 5 mps 728 mmHg 36%
    18:00 +5°C° 0 mm 5 mps 728 mmHg 37%
    19:00 +3°C° 0 mm 5 mps 728 mmHg 38%
    20:00 +3°C° 0 mm 4 mps 728 mmHg 39%
    21:00 +3°C° 0 mm 4 mps 728 mmHg 38%
    22:00 +2°C° 0 mm 5 mps 728 mmHg 38%
    23:00 +2°C° 0 mm 5 mps 727 mmHg 37%

    Day after tomorrow, 31 January, Friday

    Time Temperature Precipitation Wind Pressure Humidity
    00:00 +3°C° 0 mm 4 mps 727 mmHg 37%
    01:00 +1°C° 0 mm 4 mps 727 mmHg 38%
    02:00 +1°C° 0 mm 4 mps 727 mmHg 38%
    03:00 +1°C° 0 mm 4 mps 726 mmHg 39%
    04:00 +1°C° 0 mm 4 mps 726 mmHg 39%
    05:00 0°C° 0 mm 4 mps 726 mmHg 40%
    06:00 0°C° 0 mm 4 mps 726 mmHg 39%
    07:00 +1°C° 0 mm 4 mps 727 mmHg 39%
    08:00 +1°C° 0 mm 4 mps 727 mmHg 39%
    09:00 +2°C° 0 mm 5 mps 727 mmHg 36%
    10:00 +5°C° 0 mm 5 mps 727 mmHg 33%
    11:00 +6°C° 0 mm 5 mps 727 mmHg 30%
    12:00 +7°C° 0 mm 5 mps 726 mmHg 28%
    13:00 +8°C° 0 mm 5 mps 726 mmHg 27%
    14:00 +8°C° 0 mm 5 mps 726 mmHg 25%
    15:00 +8°C° 0 mm 5 mps 726 mmHg 27%
    16:00 +7°C° 0 mm 5 mps 726 mmHg 29%
    17:00 +6°C° 0 mm 4 mps 726 mmHg 32%
    18:00 +6°C° 0 mm 4 mps 727 mmHg 32%
    19:00 +5°C° 0 mm 5 mps 728 mmHg 32%
    20:00 +3°C° 0 mm 5 mps 728 mmHg 33%
    21:00 +3°C° 0 mm 5 mps 728 mmHg 33%
    22:00 +3°C° 0 mm 5 mps 728 mmHg 33%
    23:00 +3°C° 0 mm 5 mps 728 mmHg 33%

    1 February, Saturday

    Time Temperature Precipitation Wind Pressure Humidity
    00:00 +3°C° 0 mm 5 mps 728 mmHg 34%
    01:00 +2°C° 0 mm 5 mps 728 mmHg 35%
    02:00 +2°C° 0 mm 6 mps 728 mmHg 36%
    03:00 +2°C° 0 mm 6 mps 728 mmHg 36%
    04:00 +2°C° 0 mm 6 mps 728 mmHg 36%
    05:00 +2°C° 0 mm 6 mps 728 mmHg 37%
    06:00 +1°C° 0 mm 6 mps 728 mmHg 37%
    07:00 +1°C° 0 mm 6 mps 728 mmHg 36%
    08:00 +1°C° 0 mm 6 mps 728 mmHg 36%
    09:00 +3°C° 0 mm 7 mps 728 mmHg 33%
    10:00 +4°C° 0 mm 8 mps 727 mmHg 30%
    11:00 +6°C° 0 mm 8 mps 727 mmHg 27%
    12:00 +6°C° 0 mm 8 mps 727 mmHg 26%
    13:00 +7°C° 0 mm 8 mps 726 mmHg 25%
    14:00 +9°C° 0 mm 8 mps 725 mmHg 24%
    15:00 +8°C° 0 mm 7 mps 725 mmHg 25%
    16:00 +8°C° 0 mm 7 mps 725 mmHg 26%
    17:00 +7°C° 0 mm 6 mps 725 mmHg 27%
    18:00 +7°C° 0 mm 6 mps 726 mmHg 28%
    19:00 +5°C° 0 mm 6 mps 726 mmHg 29%
    20:00 +5°C° 0 mm 6 mps 726 mmHg 29%
    21:00 +4°C° 0 mm 6 mps 726 mmHg 29%
    22:00 +4°C° 0 mm 6 mps 726 mmHg 29%
    23:00 +4°C° 0 mm 6 mps 726 mmHg 30%

    2 February, Sunday

    Time Temperature Precipitation Wind Pressure Humidity
    00:00 +4°C° 0 mm 6 mps 726 mmHg 30%
    01:00 +4°C° 0 mm 6 mps 726 mmHg 30%
    02:00 +4°C° 0 mm 6 mps 726 mmHg 31%
    03:00 +4°C° 0 mm 6 mps 726 mmHg 31%
    04:00 +3°C° 0 mm 6 mps 726 mmHg 32%
    05:00 +3°C° 0 mm 7 mps 726 mmHg 32%
    06:00 +3°C° 0 mm 7 mps 726 mmHg 33%
    07:00 +3°C° 0 mm 7 mps 726 mmHg 33%
    08:00 +3°C° 0 mm 7 mps 726 mmHg 34%
    09:00 +4°C° 0 mm 7 mps 726 mmHg 32%
    10:00 +5°C° 0 mm 7 mps 725 mmHg 30%
    11:00 +6°C° 0 mm 8 mps 725 mmHg 29%
    12:00 +8°C° 0 mm 7 mps 725 mmHg 28%
    13:00 +9°C° 0 mm 7 mps 724 mmHg 27%
    14:00 +9°C° 0 mm 7 mps 724 mmHg 26%
    15:00 +9°C° 0 mm 6 mps 724 mmHg 27%
    16:00 +8°C° 0 mm 6 mps 724 mmHg 28%
    17:00 +8°C° 0 mm 6 mps 724 mmHg 29%
    18:00 +7°C° 0 mm 5 mps 724 mmHg 30%
    19:00 +7°C° 0 mm 5 mps 725 mmHg 30%
    20:00 +7°C° 0 mm 5 mps 725 mmHg 31%
    21:00 +6°C° 0 mm 5 mps 725 mmHg 31%
    22:00 +6°C° 0 mm 4 mps 725 mmHg 32%
    23:00 +6°C° 0 mm 4 mps 725 mmHg 32%

    3 February, Monday

    Time Temperature Precipitation Wind Pressure Humidity
    00:00 +6°C° 0 mm 4 mps 725 mmHg 33%
    01:00 +7°C° 0 mm 3 mps 725 mmHg 33%
    02:00 +5°C° 0 mm 3 mps 725 mmHg 34%
    03:00 +6°C° 0 mm 2 mps 725 mmHg 36%
    04:00 +6°C° 0 mm 2 mps 725 mmHg 38%
    05:00 +6°C° 0 mm 1 mps 725 mmHg 40%
    06:00 +6°C° 0 mm 2 mps 726 mmHg 47%
    07:00 +6°C° 0 mm 2 mps 726 mmHg 53%
    08:00 +5°C° 0 mm 3 mps 727 mmHg 60%
    09:00 +5°C° 0.1 mm 3 mps 727 mmHg 66%
    10:00 +5°C° 0.1 mm 3 mps 727 mmHg 72%
    11:00 +6°C° 0.1 mm 4 mps 728 mmHg 78%
    12:00 +5°C° 0.1 mm 3 mps 728 mmHg 81%
    13:00 +5°C° 0.1 mm 3 mps 727 mmHg 83%
    14:00 +5°C° 0.1 mm 3 mps 727 mmHg 85%
    15:00 +5°C° 0.1 mm 3 mps 727 mmHg 84%
    16:00 +5°C° 0.1 mm 3 mps 728 mmHg 83%
    17:00 +5°C° 0.1 mm 3 mps 728 mmHg 82%
    18:00 +5°C° 0.2 mm 3 mps 728 mmHg 84%
    19:00 +5°C° 0.2 mm 2 mps 729 mmHg 87%
    20:00 +5°C° 0.2 mm 2 mps 729 mmHg 89%
    21:00 +5°C° 0.2 mm 2 mps 729 mmHg 89%
    22:00 +5°C° 0.2 mm 2 mps 729 mmHg 89%
    23:00 +6°C° 0.2 mm 1 mps 730 mmHg 89%
    Show more